SCP
0 0 0 0 0 0 0 0 0 0 0 0 0 0 0 0 0 0 0 0 1 1 1 1 1 1 1 1 1 1 1 1 1 1 1 1 1 1 1 1 1 1 1 1
0 0 0 0 0 0 0 0 0 0 0 0 0 0 0 0 0 0 0 0 1 1 1 1 1 1 1 1 1 1 1 1 1 1 1 1 1 1 1 1 1 1 1 1
0 0 0 0 0 0 0 0 0 0 0 1 1 1 1 1 0 0 1 1 1 2 1 1 1 1 1 1 1 1 1 1 1 1 1 1 1 2 1 1 2 1 1 1
0 0 0 0 0 0 0 0 0 0 0 1 1 1 1 1 1 1 1 1 2 2 1 1 1 1 2 2 2 2 1 1 1 1 1 2 2 2 2 2 2 1 1 1
0 0 0 0 0 0 0 0 0 0 0 0 1 1 1 1 1 1 1 2 1 1 1 1 1 2 2 2 3 3 2 2 1 1 1 2 2 2 2 2 2 2 1 1
0 0 0 0 0 0 0 0 0 0 0 0 0 1 1 1 1 1 2 2 1 1 1 1 2 2 2 3 3 3 3 3 2 2 2 2 2 2 3 2 2 1 1 1
0 0 0 0 0 0 0 0 0 0 0 0 0 0 0 0 0 1 2 2 2 1 1 2 2 2 3 3 4 4 4 4 3 3 3 3 2 2 2 2 2 1 1 1
0 0 0 0 0 0 0 0 0 0 0 0 0 0 0 0 0 1 2 2 2 2 2 2 2 2 2 3 4 5 5 5 4 4 4 4 3 3 2 2 1 1 1 1
0 0 0 0 0 0 0 0 0 0 0 0 0 0 0 0 1 1 2 2 2 2 2 2 2 1 1 2 4 6 6 5 5 5 5 5 4 3 2 2 1 1 1 1
0 0 0 0 0 0 0 0 0 0 0 0 0 0 1 1 1 1 2 3 3 3 2 2 1 1 1 2 4 6 6 6 6 6 6 6 4 3 2 2 1 1 1 1
0 0 0 0 0 0 0 0 0 0 0 0 0 0 1 2 2 1 2 3 3 3 3 2 1 1 1 2 3 6 7 6 5 5 6 6 5 4 3 2 1 1 1 1
0 0 0 0 0 0 0 0 0 0 0 0 0 0 1 2 2 2 2 3 3 3 2 2 1 1 2 2 3 6 7 6 5 5 5 5 5 4 3 2 2 1 1 1
0 0 0 0 0 0 0 0 0 0 0 0 0 0 1 1 2 2 2 3 3 2 2 2 2 2 2 2 3 5 7 6 6 5 5 5 4 4 3 2 2 1 1 1
0 0 0 0 0 0 0 0 0 0 0 0 0 0 1 1 1 2 2 3 2 2 3 3 3 3 3 3 3 5 6 7 7 7 6 5 4 3 3 2 2 1 1 1
0 0 0 0 0 0 0 0 0 0 0 0 0 0 1 1 1 1 2 3 3 2 4 5 4 3 3 3 4 5 6 7 8 8 7 5 4 3 3 2 2 1 1 1
0 0 0 0 0 0 0 0 0 0 0 0 0 0 1 1 1 2 2 3 3 3 4 5 5 4 4 4 4 4 5 6 8 9 7 5 4 3 3 2 2 2 2 2
0 0 0 0 0 0 0 0 0 0 0 0 0 1 1 1 1 2 3 3 4 4 4 5 5 4 4 5 5 5 5 6 7 8 7 5 4 3 3 3 3 3 2 2
0 0 0 0 0 0 0 0 0 0 0 0 0 1 1 1 2 2 3 4 4 4 5 6 7 6 5 5 5 4 4 5 6 6 6 5 4 3 3 3 3 3 2 2
0 0 0 0 0 0 0 0 0 0 0 1 1 1 2 2 2 3 3 4 4 4 5 7 8 7 6 6 5 5 4 4 4 5 5 4 4 3 3 3 3 3 3 3
0 0 0 0 0 0 0 1 1 0 0 1 2 3 3 3 2 3 4 5 5 5 6 7 8 8 7 7 7 6 4 4 4 4 5 5 4 4 4 4 3 3 3 3
0 0 0 0 0 0 0 1 1 0 1 1 3 4 5 4 3 3 5 6 6 7 7 8 8 8 8 8 8 7 5 4 4 5 6 6 6 6 6 5 5 5 5 5
0 0 0 0 0 0 1 1 1 1 1 2 3 5 7 5 4 4 6 7 8 9 9 10 9 8 8 8 8 7 5 4 5 5 6 6 6 6 5 5 4 5 5 6
0 0 0 1 1 1 1 3 3 3 2 2 3 5 8 6 4 5 7 9 10 10 11 11 11 9 7 7 7 6 5 4 5 6 5 4 4 3 3 3 2 2 3 3
0 0 1 1 1 1 2 3 5 5 3 2 3 5 7 6 5 6 8 11 12 12 12 11 10 9 7 6 6 5 4 4 5 5 4 3 1 1 1 1 1 1 1 1
0 1 1 1 1 1 2 3 4 5 4 3 4 5 6 6 6 7 8 11 13 13 12 11 9 7 6 5 5 4 4 4 5 4 3 2 1 1 0 0 0 0 0 0
0 1 1 1 1 1 1 2 3 4 4 4 3 4 5 6 6 6 7 10 11 12 11 10 8 6 5 4 4 3 4 5 5 3 2 1 1 1 1 0 0 0 0 0
Wind_Speed
4 6 4 6 5 6 6 5 3 4 3 4 4 4 5 7 6 6 7 7 7 8 5 4 5 5 5 4 4 4 4 3 3 2 1 1 0 0 0 0 1 1 1 1
6 1 4 4 4 5 5 4 2 0 1 4 2 2 3 6 8 7 8 8 8 6 4 5 5 5 6 6 5 4 4 4 3 2 2 2 1 1 1 0 1 0 1 1
4 3 3 5 4 5 3 5 5 3 3 4 3 3 1 3 3 4 5 6 7 9 8 7 7 6 6 6 6 6 4 4 3 3 2 2 2 2 1 1 1 1 1 1
2 2 3 4 3 6 3 4 5 5 5 0 2 2 5 3 4 6 7 7 8 8 7 7 7 7 7 7 6 5 5 4 3 4 3 3 2 2 1 1 0 1 1 1
2 1 3 3 4 6 4 3 5 4 5 3 2 2 7 1 5 9 9 9 9 8 7 8 8 8 7 6 6 6 5 4 4 4 4 4 2 2 1 1 1 0 0 0
2 2 2 3 2 4 6 8 8 7 5 1 3 3 7 5 8 7 8 9 8 7 7 7 6 6 5 5 5 5 5 4 4 4 4 4 4 2 1 1 1 0 0 0
2 2 1 2 4 3 5 8 5 4 3 5 2 3 9 8 8 9 9 8 8 7 7 7 7 7 7 7 7 6 6 5 5 5 4 4 4 3 3 2 1 1 0 0
3 4 3 2 5 6 4 9 9 6 5 4 1 5 9 5 5 5 5 5 6 7 7 7 8 7 7 8 7 7 7 6 5 5 4 3 3 2 2 2 2 1 1 1
6 5 4 2 2 8 6 3 6 8 3 0 4 7 8 2 1 1 3 5 6 7 7 7 7 7 7 7 8 8 8 6 5 5 4 3 3 3 2 2 2 1 1 1
7 3 3 2 4 5 5 9 6 7 6 2 4 4 5 5 4 3 4 6 6 5 6 6 6 6 6 6 6 7 7 6 5 5 4 4 3 3 2 2 1 1 1 0
4 4 3 2 3 5 4 4 6 5 6 7 3 8 7 8 7 7 8 7 7 7 6 6 5 5 5 5 6 6 6 6 5 5 4 3 3 3 2 2 1 1 1 1
3 6 1 5 3 2 4 6 8 6 4 4 4 9 6 5 6 6 7 6 6 6 5 5 5 5 5 6 6 6 6 6 6 5 5 4 3 3 3 2 2 2 2 2
5 7 3 5 5 2 2 3 4 6 6 5 5 9 4 1 2 4 5 6 5 5 5 5 5 5 6 6 6 6 6 6 6 6 6 5 4 4 3 2 3 3 4 4
6 5 7 9 7 4 2 2 4 6 5 5 8 8 6 4 4 4 4 5 5 5 6 6 6 5 6 6 6 6 6 6 7 7 6 5 4 4 4 4 4 4 4 4
5 4 3 4 4 3 4 5 6 6 8 9 9 9 10 8 7 6 5 6 6 6 6 6 6 6 6 6 6 6 6 7 7 7 7 5 5 5 5 5 5 5 5 5
4 4 2 1 2 3 3 5 7 5 5 6 4 8 7 4 3 4 6 8 8 8 7 7 7 8 8 8 8 7 7 7 8 8 7 6 6 6 5 5 5 5 5 5
2 4 4 3 2 0 5 6 6 5 5 7 8 9 3 3 7 9 9 9 9 9 9 9 9 8 8 8 8 8 8 7 8 7 7 7 7 6 5 6 6 6 5 5
6 5 4 2 2 6 10 3 4 5 5 6 5 5 6 7 6 5 6 8 8 8 8 8 8 7 6 6 7 7 8 8 8 7 7 7 7 7 6 6 6 5 5 5
5 8 5 4 4 5 6 2 3 4 4 3 4 3 2 1 2 1 3 5 7 7 7 7 8 8 8 8 9 9 8 8 8 8 7 7 8 8 7 6 5 5 5 5
4 5 6 5 5 7 8 4 2 3 3 2 2 3 3 4 2 6 4 4 4 5 5 6 7 8 9 9 10 10 9 8 7 7 7 7 7 8 7 7 6 5 5 5
3 3 4 4 4 7 7 5 1 4 7 3 3 5 5 5 6 4 4 4 5 5 6 7 8 8 8 10 10 10 9 7 7 7 7 7 6 7 7 7 5 6 6 6
4 4 4 4 4 7 3 1 3 6 3 2 3 4 4 3 2 2 4 5 6 6 7 8 8 7 7 9 10 10 8 7 8 9 8 8 7 7 7 8 6 5 6 6
4 6 6 7 7 5 2 3 4 3 3 3 3 4 3 3 2 3 4 5 6 7 7 7 8 8 7 7 9 10 8 9 10 10 9 8 7 7 7 7 7 5 4 4
2 1 2 2 5 5 4 4 4 3 4 4 4 3 3 3 4 4 4 5 5 6 7 7 9 9 7 6 6 8 9 9 10 10 9 8 7 7 6 5 5 5 4 4
3 1 1 2 4 5 4 3 4 4 3 2 1 1 3 4 4 4 4 5 6 5 5 7 9 9 8 7 7 8 9 10 10 10 8 7 7 7 6 5 3 4 3 3
4 5 4 5 5 3 5 5 4 4 4 2 1 1 1 3 4 4 4 4 5 6 6 7 8 9 8 7 7 7 8 10 11 9 8 6 6 6 6 6 5 7 5 5
Wind_Direction
39 82 148 187 178 160 149 146 176 219 195 155 195 215 198 188 195 201 199 198 205 218 217 190 186 175 164 167 175 179 173 168 144 130 135 125 140 109 72 141 171 166 156 154
50 126 202 157 141 122 130 134 170 268 143 145 178 251 212 193 201 200 198 203 205 210 204 194 187 178 175 180 184 183 184 175 170 157 148 149 144 139 126 54 41 131 165 183
156 212 153 136 141 135 161 171 177 157 81 64 89 344 254 223 208 208 204 204 207 204 203 199 192 190 183 185 185 187 188 188 184 161 124 99 75 52 54 39 21 13 118 128
194 234 151 145 168 148 211 206 162 139 115 119 121 257 275 233 228 222 219 209 213 213 205 197 194 193 192 191 180 175 177 183 179 161 159 161 162 178 207 165 106 10 64 84
223 184 137 167 199 160 188 115 111 112 115 78 46 148 282 219 232 233 223 214 214 207 198 197 198 196 193 182 175 176 174 181 178 171 173 170 177 183 158 118 121 60 46 73
234 249 194 189 141 138 125 78 60 50 70 81 222 164 268 226 219 226 219 214 210 200 193 193 190 178 177 168 169 169 167 178 177 173 174 179 189 185 148 140 157 174 7 350
335 320 296 149 104 52 99 95 54 18 17 247 249 190 248 244 228 216 211 206 202 187 182 183 177 176 176 173 174 170 170 182 180 174 180 188 191 183 184 195 192 189 207 280
150 280 264 189 164 159 157 135 152 178 205 263 295 229 251 261 249 219 197 183 174 175 178 181 182 181 182 181 177 172 175 186 184 180 183 182 180 174 182 190 185 192 219 238
162 243 290 258 173 136 132 144 150 125 140 160 274 282 298 304 341 159 173 166 176 179 178 179 177 177 179 179 181 179 177 179 180 178 168 163 167 170 181 182 171 188 231 211
147 193 293 309 73 36 128 139 104 115 138 219 284 269 247 252 240 209 193 190 189 177 171 174 176 177 176 177 174 169 169 172 170 164 164 160 161 166 163 149 167 169 178 128
124 138 314 23 151 163 100 92 102 108 143 152 219 263 230 221 217 207 207 199 188 181 178 178 176 171 163 158 160 162 160 156 154 156 153 149 146 139 131 129 141 142 121 109
130 120 211 266 271 186 147 156 145 146 189 167 172 261 270 233 223 207 202 193 185 178 171 168 162 152 150 156 157 160 160 158 157 151 144 141 131 125 122 120 116 105 98 93
132 114 88 347 343 11 99 129 133 120 117 150 170 259 301 303 220 204 190 185 176 167 160 155 151 152 157 159 157 158 158 155 148 141 138 133 130 129 127 121 107 98 95 89
119 119 159 187 210 193 182 176 153 127 146 190 216 243 285 277 234 219 194 181 169 166 165 159 156 159 158 156 157 155 152 148 143 140 138 137 139 134 123 111 104 98 95 90
106 145 190 212 221 192 197 196 185 183 183 185 223 227 244 234 219 210 188 172 168 171 168 165 164 162 155 152 152 151 147 145 144 141 139 142 133 122 114 106 100 96 92 90
80 137 146 232 245 223 232 214 201 208 193 210 228 250 247 236 196 192 185 179 184 184 179 174 169 166 165 163 160 153 150 147 142 142 141 136 127 123 119 113 106 98 91 86
115 121 125 223 283 27 251 217 197 206 199 181 209 235 229 208 201 201 194 190 193 190 183 179 177 175 172 167 161 157 150 141 139 139 138 136 133 127 123 119 110 103 96 92
145 125 133 153 121 220 242 241 197 198 222 213 224 236 212 214 211 205 190 186 189 183 181 179 171 165 158 150 145 140 137 139 139 138 140 139 136 130 122 114 111 106 102 97
159 140 130 136 176 261 289 255 178 181 240 221 216 236 244 134 74 306 210 185 188 183 178 176 168 158 149 146 142 137 138 140 141 145 147 146 142 133 127 123 118 112 106 94
84 112 124 138 160 219 244 266 236 136 255 249 189 197 173 125 158 243 212 173 171 165 160 157 150 145 146 145 141 139 143 146 153 152 147 141 138 133 131 128 122 110 107 102
68 72 127 157 194 250 256 285 90 153 237 254 210 207 185 191 217 226 173 164 157 153 150 147 148 152 150 144 142 143 147 158 151 137 130 127 127 128 127 120 117 118 116 110
166 151 169 152 179 244 283 44 168 227 264 249 228 217 208 223 239 167 156 154 148 144 143 145 148 149 146 149 148 150 157 150 136 132 131 128 125 126 125 121 116 116 120 118
192 190 186 188 209 237 269 241 263 251 262 257 234 238 201 189 191 166 160 155 154 152 150 146 145 142 141 152 154 153 151 141 136 133 132 129 122 118 127 128 127 121 120 124
273 179 174 250 268 279 287 284 294 274 264 269 255 242 189 181 171 159 158 155 149 148 149 144 142 142 144 152 148 144 142 143 138 138 137 134 131 126 117 117 124 128 140 143
244 222 202 267 286 311 312 308 305 314 321 319 314 252 178 158 166 167 167 158 151 144 143 143 145 147 147 145 139 139 143 143 139 139 138 136 133 130 122 112 108 126 130 160
216 198 194 232 236 236 275 293 305 317 312 311 341 19 94 154 159 154 158 152 144 141 137 137 138 139 142 142 140 143 147 146 142 142 144 144 141 136 135 126 96 67 84 100